Regional Weather Roundup
Issued by NWS

Home | Current Version | Previous Version | Graphics & Text | Print | Product List | Glossary On
Versions: 1 2 3 4 5 6 7 8 9 10 11 12 13 14 15 16 17 18 19 20 21 22 23 24 25 26 27 28 29 30 31 32 33 34 35 36 37 38 39 40 41 42 43 44 45 46 47 48 49 50
000
ASUS43 KIND 031709
RWRIN

WEATHER ROUNDUP FOR INDIANA
NATIONAL WEATHER SERVICE INDIANAPOLIS IN
1200 PM EST TUE MAR 03 2015

NOTE: "FAIR" INDICATES FEW OR NO CLOUDS BELOW 12,000 FEET WITH NO
SIGNIFICANT WEATHER AND/OR OBSTRUCTIONS TO VISIBILITY.

* - STATION DOES NOT REPORT WEATHER SUCH AS PRECIPITATION OR FOG.

+ - STATION NOT QUALITY CONTROLLED BY THE NATIONAL WEATHER SERVICE.
    USE DATA WITH CAUTION...ESPECIALLY DEWPOINT AND RELATIVE
    HUMIDITY OBSERVATIONS.

INZ001>003-010>013-019-020-031800-
NORTHWEST INDIANA

CITY           SKY/WX    TMP DP  RH WIND       PRES   REMARKS
GARY /AIRPORT/ LGT RAIN  32  27  80 S17       29.73F WCI  21
KNOX *+          N/A     32  25  74 S15G21    29.73F WCI  22
LA PORTE +     DRIZZLE   32  31  98 S14G20    29.73F WCI  22
MICHIGAN CITY+ CLOUDY    32  28  86 S14G21    29.71F FOG     WCI  22
MONTICELLO +   CLOUDY    31  29  94 S9        29.77F FOG     WCI  23
RENSSELAER +   LGT SNOW  32  32 100 S9        29.75F WCI  24
VALPARAISO     MIX PCPN  30  30 100 S15G24    29.72F FOG     WCI  19

$$

LMZ046-743>745-031800-
SOUTHERN LAKE MICHIGAN

STATION/POSITION TIME  TEMP WIND        PRES
                       AIR  DIR/SP/G
                 (UTC) (F)  (DEG/KT/KT) (MB)
MICHIGAN CITY    1700   30  150/ 16/ 20   N/A

$$

INZ004-005-014>016-021>024-031800-
NORTH CENTRAL INDIANA

CITY           SKY/WX    TMP DP  RH WIND       PRES   REMARKS
ELKHART        CLOUDY    28  25  86 S12G21    29.75F FOG     WCI  18
GOSHEN         FRZ RAIN  29  26  89 SE21G28   29.73F FOG     WCI  16
LOGANSPORT +   CLOUDY    30  30 100 S10       29.78F FOG     WCI  21
PERU/GRISSOM   CLOUDY    30  28  92 S3        29.76F FOG
ROCHESTER +    CLOUDY    32  32 100 S13G18    29.77F FOG     WCI  22
SOUTH BEND     FRZ RAIN  31  27  85 S15       29.73F FOG     WCI  20
WARSAW +       LGT RAIN  30  28  93 S10G16    29.75F WCI  21

$$

INZ006>009-017-018-025>027-031800-
NORTHEAST INDIANA

CITY           SKY/WX    TMP DP  RH WIND       PRES   REMARKS
ANGOLA *+      CLOUDY    27  25  93 S16       29.73F WCI  14
AUBURN +       MIX PCPN  30  27  86 SE5       29.81F WCI  25
FORT WAYNE     FRZ DRZL  30  27  88 S14       29.83F FOG     WCI  19
HUNTINGTON +   CLOUDY    30  26  86 S9        29.79F FOG     WCI  21

$$

INZ028-029-035-036-043>045-051>053-031800-
WEST CENTRAL INDIANA

CITY           SKY/WX    TMP DP  RH WIND       PRES   REMARKS
CRAWFORDSVL +  CLOUDY    32  29  87 S15       29.79F WCI  22
GREENCASTLE +  LGT RAIN  34  32  93 S9G16     29.83F WCI  26
LAFAYETTE      CLOUDY    32  30  92 S7        29.77F FOG     WCI  26
TERRE HAUTE    CLOUDY    35  33  92 S14       29.84F FOG     WCI  26

$$

INZ030>032-037>040-046>048-054>057-064-065-031800-
CENTRAL INDIANA

CITY           SKY/WX    TMP DP  RH WIND       PRES   REMARKS
ANDERSON       FRZ RAIN  32  32 100 S12G17    29.86  WCI  23
CP ATTERBURY + RAIN      34  32  93 S7        29.86F WCI  28
FRANKFORT +    CLOUDY    33  33 100 SE8       29.80F FOG     WCI  26
GREENWOOD *+   CLOUDY    32  28  86 S5        29.86F WCI  27
INDIANAPOLIS   LGT RAIN  33  30  88 S10       29.83F FOG     WCI  25
-EAGLE CREEK   MIX PCPN  31  30  96 MISG      29.82F FOG
KOKOMO *+      CLOUDY    30  28  93 S15       29.80F WCI  19
MARION +       CLOUDY    31  29  93 S7        29.82F FOG     WCI  24
MT COMFORT *+  CLOUDY    32 N/A N/A S10       29.84F WCI  24
SHELBYVILLE    CLOUDY    35  31  85 SW13      29.87S FOG     WCI  26
ZIONSVILLE +   MIX PCPN  32  29  88 S9        29.81F WCI  24

$$

INZ033-034-041-042-049-050-058-059-031800-
EAST CENTRAL INDIANA

CITY           SKY/WX    TMP DP  RH WIND       PRES   REMARKS
MUNCIE         MIX PCPN  32  30  92 S10       29.84F FOG     WCI  24

$$

INZ060-061-067>069-081>083-085>088-031800-
SOUTHWEST INDIANA

CITY           SKY/WX    TMP DP  RH WIND       PRES   REMARKS
EVANSVILLE     CLOUDY    45  42  89 SW13      29.93F FOG
HUNTINGBURG *+ CLOUDY    43  39  87 S15       29.92F
WASHINGTON +   DRIZZLE   39  36  87 S21       29.86F

$$

INZ062-063-066-070>080-084-089>092-031800-
SOUTH CENTRAL AND SOUTHEAST INDIANA

CITY           SKY/WX    TMP DP  RH WIND       PRES   REMARKS
BLOOMINGTON    LGT RAIN  37  35  92 SW6       29.86F FOG
NORTH VERNON + RAIN      37  37 100 S14G26    29.89F
SEYMOUR +      CLOUDY    37  34  87 S7        29.89F FOG

$$



USA.gov is the U.S. government's official web portal to all federal, state and local government web resources and services.